• In Russia
  • List of Countries
  • For 7 days
  • Water Temperature
  • Satellite Maps
  • Weather Map
  • Weather Widgets
  • user-avatar
    Login

    Hourly Weather Klagenfurt

    Today, 17 October, Tuesday

    Time Temperature Precipitation Wind Pressure Humidity
    00:00 +11°C° 0 mm 1 mps 697 mmHg 80%
    01:00 +10°C° 0 mm 1 mps 697 mmHg 80%
    02:00 +10°C° 0 mm 1 mps 696 mmHg 79%
    03:00 +10°C° 0 mm 1 mps 696 mmHg 79%
    04:00 +10°C° 0 mm 1 mps 696 mmHg 78%
    05:00 +10°C° 0 mm 1 mps 696 mmHg 77%
    06:00 +10°C° 0 mm 1 mps 696 mmHg 75%
    07:00 +10°C° 0 mm 1 mps 696 mmHg 74%
    08:00 +12°C° 0 mm 0 mps 697 mmHg 65%
    09:00 +15°C° 0 mm 0 mps 697 mmHg 56%
    10:00 +18°C° 0 mm 0 mps 698 mmHg 47%
    11:00 +19°C° 0 mm 0 mps 697 mmHg 44%
    12:00 +22°C° 0 mm 1 mps 697 mmHg 41%
    13:00 +23°C° 0 mm 1 mps 697 mmHg 38%
    14:00 +21°C° 0 mm 1 mps 696 mmHg 45%
    15:00 +20°C° 0 mm 1 mps 696 mmHg 51%
    16:00 +19°C° 0 mm 1 mps 695 mmHg 58%
    17:00 +16°C° 0 mm 1 mps 695 mmHg 64%
    18:00 +14°C° 0 mm 1 mps 694 mmHg 70%
    19:00 +12°C° 0 mm 1 mps 694 mmHg 76%
    20:00 +12°C° 0 mm 1 mps 694 mmHg 77%
    21:00 +11°C° 0 mm 1 mps 694 mmHg 78%
    22:00 +11°C° 0 mm 1 mps 693 mmHg 79%
    23:00 +11°C° 0 mm 1 mps 693 mmHg 79%

    Tomorrow, 18 October, Wednesday

    Time Temperature Precipitation Wind Pressure Humidity
    00:00 +10°C° 0 mm 1 mps 693 mmHg 79%
    01:00 +10°C° 0 mm 1 mps 693 mmHg 78%
    02:00 +10°C° 0 mm 1 mps 692 mmHg 78%
    03:00 +9°C° 0 mm 1 mps 692 mmHg 78%
    04:00 +9°C° 0 mm 1 mps 692 mmHg 78%
    05:00 +8°C° 0 mm 1 mps 691 mmHg 77%
    06:00 +8°C° 0 mm 1 mps 691 mmHg 76%
    07:00 +8°C° 0 mm 1 mps 691 mmHg 76%
    08:00 +11°C° 0 mm 1 mps 692 mmHg 67%
    09:00 +13°C° 0 mm 1 mps 692 mmHg 59%
    10:00 +16°C° 0 mm 1 mps 692 mmHg 51%
    11:00 +18°C° 0 mm 1 mps 692 mmHg 48%
    12:00 +18°C° 0 mm 2 mps 692 mmHg 46%
    13:00 +19°C° 0 mm 2 mps 692 mmHg 44%
    14:00 +18°C° 0 mm 2 mps 691 mmHg 50%
    15:00 +17°C° 0 mm 2 mps 691 mmHg 55%
    16:00 +16°C° 0 mm 1 mps 691 mmHg 61%
    17:00 +14°C° 0 mm 1 mps 690 mmHg 69%
    18:00 +12°C° 0 mm 1 mps 690 mmHg 78%
    19:00 +10°C° 0 mm 1 mps 690 mmHg 86%
    20:00 +9°C° 0 mm 1 mps 690 mmHg 87%
    21:00 +9°C° 0 mm 1 mps 690 mmHg 89%
    22:00 +9°C° 0 mm 1 mps 690 mmHg 90%
    23:00 +8°C° 0 mm 1 mps 690 mmHg 90%

    Day after tomorrow, 19 October, Thursday

    Time Temperature Precipitation Wind Pressure Humidity
    00:00 +8°C° 0 mm 1 mps 690 mmHg 91%
    01:00 +8°C° 0 mm 1 mps 690 mmHg 91%
    02:00 +8°C° 0 mm 1 mps 690 mmHg 92%
    03:00 +8°C° 0 mm 1 mps 690 mmHg 92%
    04:00 +8°C° 0 mm 1 mps 690 mmHg 92%
    05:00 +8°C° 0 mm 1 mps 690 mmHg 92%
    06:00 +8°C° 0 mm 1 mps 690 mmHg 91%
    07:00 +8°C° 0 mm 1 mps 690 mmHg 91%
    08:00 +10°C° 0 mm 1 mps 690 mmHg 82%
    09:00 +13°C° 0 mm 1 mps 691 mmHg 72%
    10:00 +16°C° 0 mm 1 mps 691 mmHg 63%
    11:00 +16°C° 0 mm 1 mps 691 mmHg 59%
    12:00 +17°C° 0 mm 2 mps 691 mmHg 55%
    13:00 +18°C° 0 mm 2 mps 691 mmHg 50%
    14:00 +17°C° 0 mm 2 mps 691 mmHg 55%
    15:00 +18°C° 0 mm 1 mps 690 mmHg 60%
    16:00 +16°C° 0 mm 1 mps 690 mmHg 64%
    17:00 +14°C° 0 mm 1 mps 690 mmHg 72%
    18:00 +12°C° 0 mm 1 mps 690 mmHg 81%
    19:00 +10°C° 0 mm 1 mps 690 mmHg 89%
    20:00 +9°C° 0 mm 1 mps 690 mmHg 90%
    21:00 +9°C° 0 mm 1 mps 690 mmHg 91%
    22:00 +9°C° 0 mm 1 mps 690 mmHg 92%
    23:00 +8°C° 0 mm 1 mps 690 mmHg 92%

    20 October, Friday

    Time Temperature Precipitation Wind Pressure Humidity
    00:00 +8°C° 0 mm 1 mps 690 mmHg 93%
    01:00 +8°C° 0 mm 1 mps 690 mmHg 94%
    02:00 +8°C° 0 mm 1 mps 690 mmHg 94%
    03:00 +8°C° 0 mm 1 mps 690 mmHg 94%
    04:00 +8°C° 0 mm 1 mps 690 mmHg 94%
    05:00 +8°C° 0 mm 1 mps 690 mmHg 94%
    06:00 +8°C° 0 mm 1 mps 690 mmHg 93%
    07:00 +8°C° 0 mm 1 mps 690 mmHg 93%
    08:00 +10°C° 0 mm 1 mps 691 mmHg 85%
    09:00 +12°C° 0 mm 1 mps 691 mmHg 77%
    10:00 +15°C° 0 mm 1 mps 692 mmHg 69%
    11:00 +16°C° 0 mm 2 mps 692 mmHg 64%
    12:00 +17°C° 0 mm 2 mps 692 mmHg 60%
    13:00 +18°C° 0 mm 2 mps 692 mmHg 55%
    14:00 +17°C° 0 mm 2 mps 692 mmHg 60%
    15:00 +18°C° 0 mm 1 mps 692 mmHg 65%
    16:00 +16°C° 0 mm 1 mps 692 mmHg 70%
    17:00 +14°C° 0 mm 1 mps 692 mmHg 77%
    18:00 +12°C° 0 mm 1 mps 692 mmHg 84%
    19:00 +11°C° 0 mm 1 mps 692 mmHg 91%
    20:00 +10°C° 0 mm 1 mps 692 mmHg 92%
    21:00 +10°C° 0 mm 1 mps 693 mmHg 93%
    22:00 +9°C° 0 mm 1 mps 693 mmHg 94%
    23:00 +9°C° 0 mm 1 mps 693 mmHg 94%

    21 October, Saturday

    Time Temperature Precipitation Wind Pressure Humidity
    00:00 +9°C° 0 mm 1 mps 692 mmHg 94%
    01:00 +9°C° 0 mm 1 mps 692 mmHg 95%
    02:00 +8°C° 0 mm 1 mps 692 mmHg 95%
    03:00 +8°C° 0 mm 1 mps 692 mmHg 95%
    04:00 +8°C° 0 mm 1 mps 691 mmHg 95%
    05:00 +8°C° 0 mm 1 mps 691 mmHg 95%
    06:00 +8°C° 0 mm 1 mps 691 mmHg 95%
    07:00 +9°C° 0 mm 1 mps 691 mmHg 94%
    08:00 +10°C° 0 mm 1 mps 692 mmHg 88%
    09:00 +12°C° 0 mm 1 mps 692 mmHg 81%
    10:00 +14°C° 0 mm 2 mps 692 mmHg 74%
    11:00 +15°C° 0 mm 2 mps 692 mmHg 70%
    12:00 +16°C° 0 mm 2 mps 691 mmHg 66%
    13:00 +17°C° 0 mm 2 mps 691 mmHg 63%
    14:00 +16°C° 0 mm 2 mps 691 mmHg 67%
    15:00 +16°C° 0 mm 2 mps 690 mmHg 71%
    16:00 +15°C° 0 mm 2 mps 690 mmHg 75%
    17:00 +14°C° 0 mm 2 mps 690 mmHg 82%
    18:00 +12°C° 0 mm 2 mps 690 mmHg 88%
    19:00 +11°C° 0 mm 1 mps 690 mmHg 94%
    20:00 +11°C° 0 mm 1 mps 690 mmHg 95%
    21:00 +11°C° 0 mm 1 mps 689 mmHg 95%
    22:00 +11°C° 0 mm 1 mps 689 mmHg 96%
    23:00 +11°C° 0 mm 1 mps 689 mmHg 95%

    22 October, Sunday

    Time Temperature Precipitation Wind Pressure Humidity
    00:00 +10°C° 0 mm 1 mps 689 mmHg 95%
    01:00 +10°C° 0 mm 1 mps 689 mmHg 95%
    02:00 +10°C° 0 mm 1 mps 689 mmHg 95%
    03:00 +10°C° 0 mm 1 mps 689 mmHg 95%
    04:00 +9°C° 0 mm 0 mps 688 mmHg 95%
    05:00 +10°C° 0.4 mm 1 mps 688 mmHg 95%
    06:00 +11°C° 0.4 mm 1 mps 688 mmHg 95%
    07:00 +11°C° 0.4 mm 1 mps 688 mmHg 95%
    08:00 +11°C° 1.5 mm 1 mps 688 mmHg 95%
    09:00 +11°C° 1.5 mm 1 mps 688 mmHg 95%
    10:00 +12°C° 1.5 mm 1 mps 688 mmHg 95%
    11:00 +12°C° 3.7 mm 1 mps 687 mmHg 95%
    12:00 +11°C° 3.7 mm 1 mps 687 mmHg 95%
    13:00 +11°C° 3.7 mm 1 mps 687 mmHg 95%
    14:00 +10°C° 3.6 mm 1 mps 687 mmHg 94%
    15:00 +9°C° 3.6 mm 2 mps 687 mmHg 94%
    16:00 +8°C° 3.6 mm 2 mps 687 mmHg 94%
    17:00 +7°C° 1.6 mm 2 mps 687 mmHg 94%
    18:00 +7°C° 1.6 mm 2 mps 687 mmHg 94%
    19:00 +6°C° 1.6 mm 2 mps 688 mmHg 94%
    20:00 +6°C° 0.3 mm 2 mps 688 mmHg 93%
    21:00 +6°C° 0.3 mm 2 mps 688 mmHg 93%
    22:00 +6°C° 0.3 mm 2 mps 689 mmHg 93%
    23:00 +6°C° 0.1 mm 1 mps 688 mmHg 93%
    Show more